2024/04/15 17:20:00,0.0,20.9
2024/04/15 17:30:00,0.0,21.2
2024/04/15 17:40:00,0.0,21.1
2024/04/15 17:50:00,0.0,20.8
2024/04/15 18:00:00,0.0,20.7
2024/04/15 18:10:00,0.0,20.5
2024/04/15 18:20:00,0.0,20.3
2024/04/15 18:30:00,0.0,20.1
2024/04/15 18:40:00,0.0,20.1
2024/04/15 18:50:00,0.0,20.1
2024/04/15 19:00:00,0.0,20.0
2024/04/15 19:10:00,0.0,20.1
2024/04/15 19:20:00,0.0,20.0
2024/04/15 19:30:00,0.0,19.5
2024/04/15 19:40:00,0.0,19.9
2024/04/15 19:50:00,0.0,20.0
2024/04/15 20:00:00,0.0,19.3
2024/04/15 20:10:00,0.0,19.7
2024/04/15 20:20:00,0.0,20.0
2024/04/15 20:30:00,0.0,20.0
2024/04/15 20:40:00,0.0,19.7
2024/04/15 20:50:00,0.0,19.5
2024/04/15 21:00:00,0.0,19.5
2024/04/15 21:10:00,0.0,19.7
2024/04/15 21:20:00,0.0,19.8
2024/04/15 21:30:00,0.0,19.8
2024/04/15 21:40:00,0.0,19.7
2024/04/15 21:50:00,0.0,19.8
2024/04/15 22:00:00,0.0,20.0
2024/04/15 22:10:00,0.0,20.0
2024/04/15 22:20:00,0.0,19.9
2024/04/15 22:30:00,0.0,19.8
2024/04/15 22:40:00,0.0,19.9
2024/04/15 22:50:00,0.0,19.9
2024/04/15 23:00:00,0.0,19.6
2024/04/15 23:10:00,0.0,19.3
2024/04/15 23:20:00,0.0,19.6
2024/04/15 23:30:00,0.0,20.0
2024/04/15 23:40:00,0.0,20.1
2024/04/15 23:50:00,0.0,19.9
